Flag for Germany Weather past 2 weeks in Rendsburg, Schleswig-Holstein, Germany

Now
59 °F

Cool.


Feels Like: 57 °F
Forecast: 47 / 58 °F
Wind: 9 mph from West

Location: Hohn

Current Time: Sep 21, 2014 at 2:20:12 AM

Latest Report: Sep 21, 2014 at 1:20 AM


Visibility: 0 mi

Pressure: 29.89 "Hg

Humidity: 94%

Dew point: 57 °F

Location of RendsburgLocation

Historic Weather in Rendsburg — Graph

°F

Rendsburg temperature yesterday

Maximum temperature yesterday: 73 °F (at 2:20 PM)
Minimum temperature yesterday: 54 °F (at 6:20 AM)
Average temperature yesterday: 61 °F

Past Weeks' High & Low Weather Summary

 TemperatureHumidityPressure
High75 °F (Sep 6, 1:20 PM)100% (Sep 7, 11:20 PM)30.27 "Hg (Sep 7, 11:20 PM)
Low46 °F (Sep 12, 3:20 AM)50% (Sep 17, 1:20 PM)29.86 "Hg (Sep 6, 4:20 PM)
Average61 °F83%30.05 "Hg
* Reported Sep 6 12:20 AM — Sep 21 12:20 AM, Rendsburg, Weather by CustomWeather, © 2014

Note: Actual official high and low records may vary slightly from our data, if they occured in-between our weather recording intervals... More about our weather records

Advertising

Rendsburg weather history for previous 24 hours

 ConditionsComfort  
Time TempWeatherWind HumidityBarometerVisibility
12:20 AM
Sep 21
59 °FCool.8 mph94%29.89 "Hg1 mi
11:20 PM
Sep 20
59 °FCool.3 mph94%29.89 "Hg0 mi
10:20 PM59 °FCool.No wind94%29.89 "Hg0 mi
9:20 PM59 °FCool.3 mph100%29.92 "Hg1 mi
8:20 PM59 °FCool.2 mph94%29.92 "Hg1 mi
7:20 PM64 °FMild.2 mph88%29.89 "Hg3 mi
3:20 PM72 °FMild.1 mph65%29.92 "Hg4 mi
2:20 PM73 °FMild.2 mph61%29.92 "Hg4 mi
1:20 PM72 °FMild.2 mph65%29.92 "Hg4 mi
12:20 PM70 °FMild.2 mph69%29.92 "Hg4 mi
11:20 AM66 °FMild.5 mph78%29.95 "Hg4 mi
10:20 AM63 °FMild.3 mph94%29.95 "Hg3 mi
9:20 AM61 °FCool.2 mph94%29.95 "Hg2 mi
8:20 AM57 °FCool.1 mph94%29.95 "Hg1 mi
7:20 AM54 °FCool.1 mph94%29.92 "Hg1 mi
6:20 AM54 °FCool.3 mph94%29.92 "Hg0 mi
5:20 AM55 °FCool.3 mph94%29.92 "Hg0 mi
4:20 AM55 °FCool.3 mph100%29.92 "Hg0 mi
3:20 AM55 °FCool.3 mph94%29.92 "Hg0 mi
2:20 AM55 °FCool.2 mph94%29.92 "Hg0 mi
Weather by CustomWeather, © 2014

See weather overviewHow to use our weather pages